Weather History for Pascagoula, MS

Change the Weather History Date:

Monday, January 27, 2014

  Actual Average Record
Temperature  
Mean Temperature 56 °F -  
Max Temperature 66 °F 59 °F 78 °F (1950)
Min Temperature 45 °F 41 °F 27 °F (1985)
Degree Days  
Heating Degree Days 9    
Growing Degree Days 6 (Base 50)    
Moisture  
Dew Point 52 °F    
Average Humidity 84    
Maximum Humidity 100    
Minimum Humidity 36    
Precipitation  
Precipitation 0.22 in - - ()
Sea Level Pressure  
Sea Level Pressure 29.96 in    
Wind  
Wind Speed 3 mph (North)    
Max Wind Speed 16 mph    
Max Gust Speed 25 mph    
Visibility 8 miles    
Events Rain    
Averages and records for this station are not official NWS values.
T = Trace of Precipitation, MM = Missing Value Source: NWS Daily Summary

Daily Weather History Graph

Daily Weather History Graph

Search for Another Location

Airport:

Trip Planner

Search our weather history database for the weather conditions in past years. The results will help you decide how hot, cold, wet, or windy it might be!

Date:

Astronomy

Jan. 27, 2014 Rise Set
Actual Time 6:47 AM CST 5:26 PM CST
Civil Twilight 6:22 AM CST 5:51 PM CST
Nautical Twilight 5:53 AM CST 6:20 PM CST
Astronomical Twilight 5:24 AM CST 6:49 PM CST
Moon 3:26 AM CST (1/27) 2:15 PM CST (1/27)
Length of Visible Light 11h 29m
Length of Day
10h 38m
Waning Crescent, 14% of the Moon is Illuminated
Jan 27
Waning Crescent
Jan 30
New
Feb 6
First Quarter
Feb 14
Full
Feb 22
Last Quarter

Hourly Weather History & Observations

Time (CST) Temp. Windchill Dew Point Humidity Pressure Visibility Wind Dir Wind Speed Gust Speed Precip Events Conditions
12:53 AM 48.9 °F - 48.0 °F 97% 29.92 in 7.0 mi Calm Calm - 0.00 in Rain Light Rain
1:53 AM 50.0 °F - 48.9 °F 96% 29.92 in 4.0 mi Calm Calm - 0.00 in   Overcast
2:53 AM 51.1 °F - 50.0 °F 96% 29.92 in 8.0 mi Calm Calm - N/A   Overcast
3:15 AM 51.1 °F - 50.0 °F 96% 29.91 in 7.0 mi Calm Calm - 0.00 in Rain Light Rain
3:37 AM 52.0 °F - 51.1 °F 97% 29.90 in 8.0 mi Calm Calm - 0.00 in Rain Light Rain
3:53 AM 52.0 °F - 51.1 °F 97% 29.91 in 6.0 mi Calm Calm - 0.00 in Rain Light Rain
4:53 AM 54.0 °F - 54.0 °F 100% 29.90 in 5.0 mi Calm Calm - 0.00 in Rain Light Rain
5:34 AM 55.9 °F - 55.9 °F 100% 29.90 in 8.0 mi SSE 3.5 mph - 0.00 in Rain Light Rain
5:53 AM 55.9 °F - 55.0 °F 97% 29.91 in 8.0 mi Calm Calm - 0.00 in   Overcast
6:28 AM 57.0 °F - 55.9 °F 96% 29.92 in 6.0 mi Calm Calm - 0.00 in Rain Light Rain
6:53 AM 57.0 °F - 55.9 °F 96% 29.93 in 10.0 mi South 4.6 mph - 0.02 in   Overcast
7:28 AM 57.0 °F - 57.0 °F 100% 29.93 in 0.8 mi SSW 5.8 mph - 0.11 in Rain Heavy Rain
7:36 AM 57.9 °F - 57.0 °F 97% 29.94 in 1.0 mi WSW 3.5 mph - 0.18 in Rain Heavy Rain
7:46 AM 57.9 °F - 57.0 °F 97% 29.93 in 3.0 mi Calm Calm - 0.19 in Rain Light Rain
7:53 AM 57.9 °F - 57.0 °F 97% 29.94 in 5.0 mi Calm Calm - 0.19 in Rain Light Rain
8:24 AM 57.9 °F - 57.0 °F 97% 29.94 in 4.0 mi Calm Calm - 0.00 in Rain Light Rain
8:53 AM 59.0 °F - 57.9 °F 96% 29.94 in 6.0 mi SW 3.5 mph - 0.00 in   Overcast
9:37 AM 61.0 °F - 60.1 °F 97% 29.97 in 5.0 mi NW 8.1 mph - 0.00 in Rain Rain
9:53 AM 60.1 °F - 60.1 °F 100% 29.97 in 7.0 mi Variable 3.5 mph - 0.01 in   Overcast
10:25 AM 62.1 °F - 61.0 °F 96% 29.96 in 10.0 mi Calm Calm - N/A   Mostly Cloudy
10:33 AM 64.0 °F - 61.0 °F 90% 29.96 in 10.0 mi NNW 5.8 mph - N/A   Mostly Cloudy
10:41 AM 64.0 °F - 60.1 °F 87% 29.96 in 10.0 mi North 5.8 mph - N/A   Overcast
10:53 AM 64.9 °F - 61.0 °F 87% 29.96 in 10.0 mi North 6.9 mph - N/A   Mostly Cloudy
11:05 AM 64.0 °F - 60.1 °F 87% 29.96 in 10.0 mi NNW 8.1 mph - N/A   Overcast
11:20 AM 64.0 °F - 59.0 °F 84% 29.96 in 10.0 mi North 8.1 mph - N/A   Mostly Cloudy
11:53 AM 66.0 °F - 57.9 °F 75% 29.95 in 10.0 mi North 10.4 mph - N/A   Overcast
12:53 PM 66.0 °F - 55.9 °F 70% 29.93 in 10.0 mi NNE 11.5 mph - N/A   Overcast
1:53 PM 64.9 °F - 55.0 °F 70% 29.92 in 10.0 mi North 10.4 mph - N/A   Overcast
2:53 PM 64.9 °F - 55.0 °F 70% 29.92 in 10.0 mi North 8.1 mph - N/A   Overcast
3:53 PM 64.0 °F - 54.0 °F 70% 29.93 in 10.0 mi North 9.2 mph - N/A   Overcast
4:53 PM 62.1 °F - 53.1 °F 72% 29.95 in 10.0 mi North 10.4 mph - N/A   Overcast
5:53 PM 60.1 °F - 51.1 °F 72% 30.00 in 10.0 mi North 10.4 mph - N/A   Overcast
6:53 PM 55.9 °F - 50.0 °F 80% 30.00 in 10.0 mi NNE 6.9 mph - N/A   Mostly Cloudy
7:53 PM 55.0 °F - 42.1 °F 62% 30.04 in 10.0 mi North 12.7 mph - N/A   Mostly Cloudy
8:53 PM 53.1 °F - 37.9 °F 57% 30.06 in 10.0 mi North 15.0 mph 21.9 mph N/A   Mostly Cloudy
9:53 PM 48.9 °F - 32.0 °F 52% 30.08 in 10.0 mi North 11.5 mph - N/A   Mostly Cloudy
10:53 PM 46.9 °F - 26.1 °F 44% 30.09 in 10.0 mi NNE 16.1 mph 24.2 mph N/A   Overcast
11:53 PM 45.0 °F 38.2 °F 19.0 °F 36% 30.09 in 10.0 mi NNE 15.0 mph 25.3 mph N/A   Overcast